Location: Perryvale
(54.4667°N, 113.3833°W)
Time: 23:12:49
(UTC+00:00)

Vanguard 1 Rocket - Pass Details

Date: 19 May 2024
Orbit: 649 x 4221 km, 34.3° (Epoch: 13 June)

Event Time Altitude Azimuth Distance (km) Brightness Sun altitude
Rises 15:01:25 0° 189° (S) 8,072 12.2 29.3°
Reaches altitude 10° 15:13:11 10° 164° (SSE) 6,244 12.1 31.0°
Maximum altitude 15:18:20 12° 148° (SSE) 5,617 12.1 31.8°
Drops below altitude 10° 15:22:49 10° 131° (SE) 5,292 12.3 32.4°
Sets 15:30:04 0° 104° (ESE) 5,429 12.4 33.4°
